COSMOS 2251 DEB, 35670

Orbit data source: Space-Track

COSMOS 2251 DEB, 35670 is space debris in LEO originally from a launch on Wed, 16 Jun 1993 UTC launched from the Plesetsk Missile And Space Complex (PKMTR). The debris from Iridium 33, an American commercial communications satellite, has been tracked extensively since its accidental collision with the defunct Russian satellite Cosmos 2251 in 2009. This event, occurring at high speed in low Earth orbit (LEO), generated thousands of pieces of space debris, significantly increasing the risk of further collisions. The Iridium 33 debris cloud has impacted space traffic management and orbital debris mitigation strategies, making it a subject of ongoing study in space situational awareness.

Loading next visibility...
Identifier
35670, 1993-036APM
Orbit
LEO
Country
Flag of CISCIS
Related business
Manufacturer
Unknown
Mission
Spacecraft
Bus & Motor
Unknown
Mass
Unknown
Launch date (UTC)
1993-06-16 (33 years ago)
Launch vehicle
Unknown
Launch site
Plesetsk Missile And Space Complex (PKMTR)
Object type
Payload
Rocket body
Debris
Shape & HBR
Unknown shape, 0.1 m
Radar Cross Section
Small (<0.1 m²)

Expand to show TLE details & history
Last TLE update: 14 hours ago

TLE from 14 hours ago
0 COSMOS 2251 DEB
1 35670U 93036APM 26174.97007925  .00010039  00000-0  79709-3 0  9999
2 35670  73.8927  29.9567 0029322 306.7835  53.0660 15.00241586906194
Epoch: 2026-06-23T23:16Z
TLE epoch observation values (Epoch: 2026-06-23T23:16:54.847Z)
Latitude
-0.00003°
Longitude
128.59415°
Altitude
556.631 km
Speed
7.59 km/s
True Right ascension
01h 59m 49s
True Declination
0° 00' 00"
Sunlit
Object was in daylight at epoch
Visualization orbit readout
Latitude
Unknown
Longitude
Unknown
Altitude
Unknown
Speed
Unknown
Apparent Right ascension
Unknown
Apparent Declination
Unknown
Sunlit
N/A
Visualization observer readout
Local Sidereal Time
00:18:00
Azimuth
Unknown
Elevation
Unknown
Doppler factor
Unknown
Orbital elements
Apogee altitude
584.072 km
Perigee altitude
543.362 km
Semi-major axis
6,941.854 km
Eccentricity
0.00293
Inclination
73.8927°
RAAN
29.9567°
Arg. of periapsis
306.7835°
True anomaly
53.33517°
Mean anomaly
53.066°
Eccentric anomaly
53.20053°
Mean motion
3.75258 °/min
Orbital period
95.93 mins
BSTAR
0.00079709
Loading maneuver chart data...
Computing Atmospheric mass density...

Documentation

Showing up to 5 results
|